Zurück zum Katalog

DELTA 2 R/B

AktivLEO
NORAD 20763·ROCKET BODY·🇺🇸 United States

Gestartet Aug 18, 1990 von Cape Canaveral Space Force Station

Loading…

Nächste Überflüge (nächste 24 Stunden)

TLE

AktuellSource: Space-Track

Epoche: Sep 14, 2026, 19:30 UTC

1 20763U 90074B   26257.81251840  .00004640  00000-0  35818-3 0  9991
2 20763  24.7571  80.7876 0326916  83.5002 280.2615 14.64377642891148

Verfolge DELTA 2 R/B in Echtzeit mit AllMySat

Download on the App Store